Regional Weather Roundup
Issued by NWS Bismarck, ND

Home | Current Version | Previous Version | Text Only | Print | Product List | Glossary On
Versions: 1 2 3 4 5 6 7 8 9 10 11 12 13 14 15 16 17 18 19 20 21 22 23 24 25 26 27 28 29 30 31 32 33 34 35 36 37 38 39 40 41 42 43 44 45 46 47 48 49 50
263
ASUS43 KBIS 252202
RWRBIS

NWR BROADCAST TEXT
NATIONAL WEATHER SERVICE BISMARCK ND
500 PM CDT WED APR 25 2018

NOTE: "FAIR" INDICATES FEW OR NO CLOUDS BELOW 12,000 FEET WITH NO
SIGNIFICANT WEATHER AND/OR OBSTRUCTIONS TO VISIBILITY.


CITY           SKY/WX    TMP DP  RH WIND       PRES   REMARKS
WILLISTON      CLOUDY    67  29  24 W20G26    29.81F
MINOT          CLOUDY    71  21  15 SW22G30   29.76F
MINOT AFB      CLOUDY    70  27  20 W20G28    29.75F
BISMARCK       PTSUNNY   69  24  18 SW20G28   29.86F
DICKINSON      CLOUDY    69  23  17 W25       29.83F
GARRISON         N/A     68  27  21 W17       29.79F
HETTINGER ARPT PTSUNNY   68  27  21 SW17G26   29.88F
JAMESTOWN      CLOUDY    64  27  24 SW22G33   29.88F
CARRINGTON     MOCLDY    66  27  22 SW28G35   29.85F
HAZEN          FAIR      72  23  16 W17G26    29.82F
MANDAN         FAIR      66  25  20 SW20G26   29.86F
OAKES            N/A     63  32  31 SW17G25   29.95F
RUGBY          FAIR      68  27  21 SW26G33   29.76F
STANLEY          N/A     66  30  26 W21G30    29.81F HAZE
TIOGA          FAIR      64  28  25 W18G29    29.81S
WATFORD CITY   FAIR      68  28  22 W16G23    29.81F
$$

CITY           SKY/WX    TMP DP  RH WIND       PRES   REMARKS
GRAND FORKS    PTSUNNY   63  37  38 SW22G32   29.86F
GRAND FORKS AF FAIR      64  31  29 S23G29    29.85F
DEVILS LAKE    FAIR      57  29  34 SW16      29.82F
FARGO          FAIR      65  29  25 SW21G31   29.94F
CANDO          FAIR      70  27  19 SW24G31   29.80F
CAVALIER         N/A     66  30  26 SW23G30   29.78F
GRAFTON        FAIR      66  28  24 SW21G32   29.84F
GWINNER          N/A     63  30  29 SW21      29.96F
LANGDON        FAIR      64  32  29 SW28G36   29.79F
ROLLA          FAIR      64  34  32 SW24G33   29.75F
$$

CITY           SKY/WX    TMP DP  RH WIND       PRES   REMARKS
ABERDEEN       PTSUNNY   66  29  24 S17G24    29.98F
MOBRIDGE       PTSUNNY   67  31  26 S17       29.90F
BUFFALO          N/A     72  23  16 W21       29.83F
RAPID CITY     SUNNY     75  11   8 W12       29.89F
GLASGOW        CLOUDY    68  26  20 N21G32    29.91R
SIDNEY         CLOUDY    69  24  18 W18       29.83F
WOLF POINT     CLOUDY    69  31  24 NW17G26   29.87S
GLENDIVE       CLOUDY    66  28  24 NW18      29.88S
MILES CITY     PTSUNNY   67  30  25 NW25G31   29.91S
BAKER          CLOUDY    64  27  24 NW21G30   29.90F
$$

CITY           SKY/WX    TMP DP  RH WIND       PRES   REMARKS
BILLINGS       PTSUNNY   68  22  17 NW20G29   29.99F
GREAT FALLS    CLOUDY    51  33  50 N14       30.18R
$$





USA.gov is the U.S. government's official web portal to all federal, state and local government web resources and services.